Weather History for Harlan, KY

Change the Weather History Date:

Monday, January 21, 2013

  Actual Average (KLOZ) Record (KLOZ)
Temperature  
Mean Temperature 32 °F 36 °F  
Max Temperature 41 °F 45 °F 67 °F (1959)
Min Temperature 23 °F 26 °F -18 °F (1985)
Degree Days  
Heating Degree Days 32 30  
Month to date heating degree days 626  
Since 1 July heating degree days 2278  
Cooling Degree Days 0 0  
Month to date cooling degree days 0  
Year to date cooling degree days 0  
Moisture  
Dew Point 16 °F    
Average Humidity 59    
Maximum Humidity 100    
Minimum Humidity 28    
Precipitation  
Precipitation 0.00 in 0.11 in 1.56 in (1979)
Month to date precipitation 2.39  
Year to date precipitation 2.39  
Sea Level Pressure  
Sea Level Pressure 30.10 in    
Wind  
Wind Speed 4 mph (West)    
Max Wind Speed 23 mph    
Max Gust Speed 33 mph    
Visibility 10 miles    
Events      
T = Trace of Precipitation, MM = Missing Value Source: NWS Daily Summary

Daily Weather History Graph

Daily Weather History Graph

Search for Another Location

Airport:

Trip Planner

Search our weather history database for the weather conditions in past years. The results will help you decide how hot, cold, wet, or windy it might be!

Date:

Astronomy

Jan. 21, 2013 Rise Set
Actual Time 7:42 AM EST 5:47 PM EST
Civil Twilight 7:14 AM EST 6:15 PM EST
Nautical Twilight 6:43 AM EST 6:46 PM EST
Astronomical Twilight 6:12 AM EST 7:17 PM EST
Moon 1:26 PM EST (1/21) 3:09 AM EST (1/21)
Length of Visible Light 11h 00m
Length of Day
10h 04m
Waxing Gibbous, 75% of the Moon is Illuminated
Jan 21
Waxing Gibbous
Jan 26
Full
Feb 3
Last Quarter
Feb 10
New
Feb 17
First Quarter

Hourly Weather History & Observations

Time (EST) Temp. Windchill Dew Point Humidity Pressure Visibility Wind Dir Wind Speed Gust Speed Precip Events Conditions
12:15 AM 30.2 °F - 26.6 °F 86% 30.11 in 10.0 mi Calm Calm - N/A   Clear
12:35 AM 30.2 °F - 28.4 °F 93% 30.11 in 10.0 mi Calm Calm - N/A   Clear
12:55 AM 30.2 °F - 26.6 °F 86% 30.11 in 10.0 mi Calm Calm - N/A   Clear
1:15 AM 30.2 °F - 26.6 °F 86% 30.10 in 10.0 mi Calm Calm - N/A   Clear
1:35 AM 30.2 °F - 26.6 °F 86% 30.10 in 10.0 mi Calm Calm - N/A   Clear
1:55 AM 28.4 °F - 26.6 °F 93% 30.11 in 10.0 mi Calm Calm - N/A   Clear
2:15 AM 28.4 °F - 24.8 °F 86% 30.11 in 10.0 mi Calm Calm - N/A   Clear
2:35 AM 28.4 °F - 24.8 °F 86% 30.11 in 10.0 mi Calm Calm - N/A   Clear
2:55 AM 28.4 °F - 24.8 °F 86% 30.11 in 10.0 mi Calm Calm - N/A   Clear
3:15 AM 28.4 °F - 26.6 °F 93% 30.10 in 10.0 mi Calm Calm - N/A   Clear
3:35 AM 28.4 °F - 26.6 °F 93% 30.10 in 10.0 mi Calm Calm - N/A   Clear
3:55 AM 26.6 °F - 26.6 °F 100% 30.09 in 10.0 mi Calm Calm - N/A   Clear
4:15 AM 28.4 °F - 26.6 °F 93% 30.08 in 10.0 mi Calm Calm - N/A   Clear
4:35 AM 28.4 °F - 26.6 °F 93% 30.08 in 3.0 mi Calm Calm - N/A   Scattered Clouds
4:55 AM 28.4 °F - 26.6 °F 93% 30.07 in 10.0 mi Calm Calm - N/A   Clear
5:15 AM 26.6 °F - 26.6 °F 100% 30.06 in 10.0 mi Calm Calm - N/A   Clear
5:35 AM 26.6 °F - 26.6 °F 100% 30.07 in 10.0 mi Calm Calm - N/A   Clear
5:55 AM 26.6 °F - 24.8 °F 93% 30.07 in 10.0 mi Calm Calm - N/A   Clear
6:15 AM 26.6 °F - 24.8 °F 93% 30.07 in 10.0 mi Calm Calm - N/A   Scattered Clouds
6:35 AM 26.6 °F - 23.0 °F 86% 30.08 in 10.0 mi Calm Calm - N/A   Scattered Clouds
6:55 AM 24.8 °F 20.5 °F 23.0 °F 93% 30.08 in 7.0 mi West 3.5 mph - N/A   Clear
7:15 AM 26.6 °F - 23.0 °F 86% 30.09 in 10.0 mi Calm Calm - N/A   Clear
7:35 AM 24.8 °F - 23.0 °F 93% 30.09 in 5.0 mi Calm Calm - N/A   Clear
7:55 AM 24.8 °F 20.5 °F 23.0 °F 93% 30.10 in 10.0 mi WSW 3.5 mph - N/A   Clear
8:15 AM 24.8 °F 20.5 °F 23.0 °F 93% 30.10 in 7.0 mi West 3.5 mph - N/A   Clear
8:35 AM 26.6 °F - 24.8 °F 93% 30.10 in 10.0 mi Calm Calm - N/A   Clear
8:55 AM 28.4 °F 24.6 °F 26.6 °F 93% 30.11 in 10.0 mi WSW 3.5 mph - N/A   Clear
9:15 AM 32.0 °F 26.4 °F 23.0 °F 69% 30.12 in 10.0 mi WSW 5.8 mph - N/A   Clear
9:35 AM 33.8 °F 28.6 °F 21.2 °F 60% 30.12 in 10.0 mi SW 5.8 mph - N/A   Clear
9:55 AM 32.0 °F 28.7 °F 19.4 °F 60% 30.12 in 10.0 mi SW 3.5 mph - N/A   Clear
10:15 AM 32.0 °F 25.6 °F 17.6 °F 55% 30.13 in 10.0 mi West 6.9 mph - N/A   Clear
10:35 AM 32.0 °F 24.8 °F 17.6 °F 55% 30.13 in 10.0 mi WSW 8.1 mph - N/A   Clear
10:55 AM 35.6 °F 30.7 °F 15.8 °F 44% 30.13 in 10.0 mi West 5.8 mph 16.1 mph N/A   Clear
11:15 AM 35.6 °F 29.2 °F 12.2 °F 38% 30.13 in 10.0 mi SW 8.1 mph - N/A   Clear
11:35 AM 37.4 °F 31.4 °F 12.2 °F 36% 30.12 in 10.0 mi West 8.1 mph - N/A   Clear
11:55 AM 37.4 °F 28.9 °F 6.8 °F 28% 30.11 in 10.0 mi West 13.8 mph 23.0 mph N/A   Clear
12:15 PM 37.4 °F 31.4 °F 8.6 °F 30% 30.10 in 10.0 mi West 8.1 mph 20.7 mph N/A   Clear
12:35 PM 39.2 °F 35.9 °F 8.6 °F 28% 30.09 in 10.0 mi WSW 4.6 mph - N/A   Clear
12:55 PM 39.2 °F 34.2 °F 10.4 °F 31% 30.07 in 10.0 mi WSW 6.9 mph - N/A   Clear
1:15 PM 39.2 °F 33.6 °F 8.6 °F 28% 30.06 in 10.0 mi SW 8.1 mph 21.9 mph N/A   Clear
1:35 PM 39.2 °F 33.6 °F 10.4 °F 31% 30.05 in 10.0 mi West 8.1 mph 16.1 mph N/A   Clear
1:55 PM 41.0 °F 35.2 °F 10.4 °F 29% 30.05 in 10.0 mi SW 9.2 mph 17.3 mph N/A   Clear
2:15 PM 41.0 °F 33.1 °F 10.4 °F 29% 30.05 in 10.0 mi WSW 15.0 mph 20.7 mph N/A   Clear
2:35 PM 41.0 °F 32.2 °F 10.4 °F 29% 30.04 in 10.0 mi West 18.4 mph 21.9 mph N/A   Clear
2:55 PM 41.0 °F 35.2 °F 12.2 °F 31% 30.04 in 10.0 mi SW 9.2 mph 19.6 mph N/A   Clear
3:15 PM 41.0 °F 34.7 °F 12.2 °F 31% 30.04 in 10.0 mi SW 10.4 mph 24.2 mph N/A   Clear
3:35 PM 41.0 °F 31.6 °F 10.4 °F 29% 30.04 in 10.0 mi West 20.7 mph 32.2 mph N/A   Clear
3:55 PM 37.4 °F 28.2 °F 10.4 °F 33% 30.04 in 10.0 mi West 16.1 mph 33.4 mph N/A   Clear
4:15 PM 37.4 °F 28.5 °F 10.4 °F 33% 30.05 in 10.0 mi WNW 15.0 mph 25.3 mph N/A   Clear
4:35 PM 39.2 °F 30.2 °F 12.2 °F 33% 30.05 in 10.0 mi West 17.3 mph 27.6 mph N/A   Clear
4:55 PM 37.4 °F 26.4 °F 8.6 °F 30% 30.06 in 10.0 mi West 23.0 mph 31.1 mph N/A   Clear
5:15 PM 35.6 °F 24.5 °F 8.6 °F 33% 30.06 in 10.0 mi WNW 20.7 mph 26.5 mph N/A   Clear
5:35 PM 33.8 °F 25.3 °F 8.6 °F 35% 30.07 in 10.0 mi West 11.5 mph - N/A   Clear
6:15 PM 32.0 °F 21.6 °F 8.6 °F 38% 30.08 in 10.0 mi West 15.0 mph 20.7 mph N/A   Clear
6:35 PM 32.0 °F 24.2 °F 8.6 °F 38% 30.08 in 10.0 mi West 9.2 mph - N/A   Clear
6:55 PM 32.0 °F 24.2 °F 6.8 °F 35% 30.09 in 10.0 mi West 9.2 mph 17.3 mph N/A   Clear
7:15 PM 32.0 °F 20.8 °F 6.8 °F 35% 30.09 in 10.0 mi West 17.3 mph 23.0 mph N/A   Clear
7:35 PM 30.2 °F 20.2 °F 8.6 °F 40% 30.09 in 10.0 mi WNW 12.7 mph 21.9 mph N/A   Clear
7:55 PM 30.2 °F 21.9 °F 8.6 °F 40% 30.10 in 10.0 mi West 9.2 mph - N/A   Clear
8:15 PM 30.2 °F 20.8 °F 8.6 °F 40% 30.11 in 10.0 mi West 11.5 mph 19.6 mph N/A   Clear
8:35 PM 30.2 °F 23.4 °F 10.4 °F 44% 30.11 in 10.0 mi West 6.9 mph - N/A   Mostly Cloudy
8:55 PM 28.4 °F 18.5 °F 5.0 °F 37% 30.12 in 10.0 mi West 11.5 mph 23.0 mph N/A   Mostly Cloudy
9:15 PM 28.4 °F 19.7 °F 5.0 °F 37% 30.13 in 10.0 mi West 9.2 mph - N/A   Clear
9:35 PM 28.4 °F 18.5 °F 6.8 °F 40% 30.13 in 10.0 mi West 11.5 mph 19.6 mph N/A   Clear
9:55 PM 28.4 °F 18.5 °F 5.0 °F 37% 30.13 in 10.0 mi West 11.5 mph 18.4 mph N/A   Scattered Clouds
10:15 PM 26.6 °F 17.5 °F 6.8 °F 43% 30.15 in 10.0 mi West 9.2 mph - N/A   Scattered Clouds
10:35 PM 26.6 °F 13.8 °F 6.8 °F 43% 30.15 in 10.0 mi WNW 17.3 mph 23.0 mph N/A   Scattered Clouds
10:55 PM 26.6 °F 16.8 °F 5.0 °F 40% 30.16 in 10.0 mi West 10.4 mph 18.4 mph N/A   Clear
11:15 PM 24.8 °F 11.5 °F 6.8 °F 46% 30.16 in 10.0 mi West 17.3 mph 23.0 mph N/A   Mostly Cloudy
11:35 PM 24.8 °F 14.6 °F 6.8 °F 46% 30.16 in 10.0 mi West 10.4 mph - N/A   Overcast
11:55 PM 23.0 °F 13.9 °F 5.0 °F 46% 30.16 in 10.0 mi West 8.1 mph 20.7 mph N/A   Mostly Cloudy